Stations météo

Publicité
Leucate/Semaphore, France (7666): Température de l'air & dewpoint: 28.05.2020 02:00:00 - 03.06.2020 02:00:00 (CEST)Leucate/Semaphore, France (7666): Vitesse du vent & gusts: 28.05.2020 02:00:00 - 03.06.2020 02:00:00 (CEST)Leucate/Semaphore, France (7666): Direction du vent: 28.05.2020 02:00:00 - 03.06.2020 02:00:00 (CEST)Leucate/Semaphore, France (7666): reduced air pressure: 28.05.2020 02:00:00 - 03.06.2020 02:00:00 (CEST)Leucate/Semaphore, France (7666): visibility: 28.05.2020 02:00:00 - 03.06.2020 02:00:00 (CEST)Leucate/Semaphore, France (7666): Quantités de précipitations: 28.05.2020 02:00:00 - 03.06.2020 02:00:00 (CEST)
Date & Time tt [°C] td [°C] ff [km/h] ff [knt] fx [km/h] fx [knt] dd ppp [hPa] vv [km] rr [mm]
03.06.2020 02:00:00 18,9 15,8 5 3 7 4 SW 1011,9 - 0,0
03.06.2020 01:00:00 19,7 17,5 5 3 14 8 SW 1012,3 - 0,0
03.06.2020 00:00:00 20,0 17,4 9 5 14 8 SSW 1012,8 - 0,0
02.06.2020 23:00:00 20,1 17,3 12 7 21 11 S 1012,9 - 0,0
02.06.2020 22:00:00 20,3 17,9 14 8 18 10 S 1012,8 - 0,0
02.06.2020 21:00:00 20,8 18,2 16 9 21 12 S 1012,8 - 0,0
02.06.2020 20:00:00 20,8 18,0 18 10 23 12 S 1013,1 18 0,0
02.06.2020 19:00:00 21,2 17,6 14 8 19 10 S 1013,3 - 0,0
02.06.2020 18:00:00 20,9 17,5 13 7 21 11 S 1013,8 - 0,0
02.06.2020 17:00:00 20,6 17,4 15 8 23 13 SE 1014,4 - 0,0
02.06.2020 16:00:00 21,1 17,1 17 9 26 14 ESE 1014,8 - 0,0
02.06.2020 15:00:00 21,9 17,5 16 9 25 14 E 1015,2 - 0,0
02.06.2020 14:00:00 21,6 17,2 11 6 19 10 ENE 1015,6 18 0,0
02.06.2020 13:00:00 21,8 17,4 7 4 22 12 E 1016,0 - 0,0
02.06.2020 12:00:00 21,4 17,6 12 7 22 12 E 1016,3 - 0,0
02.06.2020 11:00:00 21,3 17,9 9 5 18 10 E 1016,3 20 0,0
02.06.2020 10:00:00 21,3 18,1 4 2 22 12 ENE 1016,4 - 0,0
02.06.2020 09:00:00 19,9 17,7 11 6 22 12 N 1016,2 - 0,0
02.06.2020 08:00:00 18,9 18,1 12 7 19 10 NNW 1015,8 - 0,0
02.06.2020 07:00:00 18,4 17,7 11 6 18 10 NNW 1015,6 - 0,0
02.06.2020 06:00:00 18,2 17,6 8 5 15 8 NW 1015,4 - 0,0
02.06.2020 05:00:00 18,5 17,7 11 6 21 12 NNW 1015,3 15 0,2
02.06.2020 04:00:00 18,6 17,8 10 5 18 10 NW 1015,6 - 0,0
02.06.2020 03:00:00 18,4 17,6 11 6 20 11 NNW 1015,7 - 0,0
02.06.2020 02:00:00 18,7 17,9 11 6 21 12 NW 1016,1 - 0,0
02.06.2020 01:00:00 18,4 17,4 11 6 16 8 WNW 1016,4 - 0,0
02.06.2020 00:00:00 19,0 17,5 8 4 12 6 WNW 1016,7 - 0,0
01.06.2020 23:00:00 20,0 18,3 12 7 16 8 S 1016,2 - 0,0
01.06.2020 22:00:00 19,8 17,0 8 4 16 9 S 1015,6 - 0,0
01.06.2020 21:00:00 20,0 17,0 12 7 28 15 S 1015,7 - 0,0
01.06.2020 20:00:00 19,8 16,6 23 13 29 16 S 1015,4 15 0,0
01.06.2020 19:00:00 20,4 18,7 6 3 23 13 E 1015,3 - 0,0
01.06.2020 18:00:00 19,8 17,9 13 7 35 19 ESE 1015,6 - 0,0
01.06.2020 17:00:00 20,3 18,2 23 12 33 18 SE 1016,2 15 0,0
01.06.2020 16:00:00 20,2 17,6 27 15 36 19 SE 1016,3 - 0,0
01.06.2020 15:00:00 20,5 17,9 28 15 38 20 SE 1016,4 - 0,0
01.06.2020 14:00:00 21,0 17,2 29 16 40 21 ESE 1016,2 - 0,0
01.06.2020 13:00:00 20,4 17,8 32 18 44 24 SE 1016,1 - 0,0
01.06.2020 12:00:00 20,4 18,2 38 20 48 26 SE 1015,7 - 0,0
01.06.2020 11:00:00 20,1 18,2 33 18 46 25 SE 1015,6 11 0,0
01.06.2020 10:00:00 20,1 18,4 32 17 40 21 SE 1015,3 - 0,0
01.06.2020 09:00:00 20,0 16,8 18 10 25 14 SSE 1015,3 - 0,0
01.06.2020 08:00:00 19,9 16,9 19 10 32 17 SSE 1015,1 15 0,0
01.06.2020 07:00:00 19,7 16,7 27 14 42 23 SE 1014,2 - 0,0
01.06.2020 06:00:00 19,7 17,5 28 15 38 21 ESE 1013,1 - 0,0
01.06.2020 05:00:00 19,7 17,7 27 14 36 20 ESE 1012,9 15 0,0
01.06.2020 04:00:00 19,6 17,0 26 14 37 20 ESE 1013,0 - 0,0
01.06.2020 03:00:00 19,8 17,2 29 16 39 21 SE 1013,0 - 0,0
01.06.2020 02:00:00 19,8 16,8 33 18 41 22 SE 1013,2 - 0,0
01.06.2020 01:00:00 20,0 16,8 27 14 46 25 SSE 1013,7 - 0,0
01.06.2020 00:00:00 20,0 17,4 35 19 44 24 SSE 1013,7 - 0,0
31.05.2020 23:00:00 19,8 17,4 36 20 47 25 SSE 1014,1 - 0,0
31.05.2020 22:00:00 19,9 17,9 40 22 50 27 SSE 1013,9 - 0,0
31.05.2020 21:00:00 19,9 17,7 35 19 46 25 SE 1013,7 - 0,0
31.05.2020 20:00:00 19,9 17,5 29 16 41 22 ESE 1013,5 - 0,0
31.05.2020 19:00:00 20,1 17,9 29 16 41 22 SE 1013,3 - 0,0
31.05.2020 18:00:00 20,2 17,4 28 15 38 21 ESE 1013,7 - 0,0
31.05.2020 17:00:00 20,5 17,9 28 15 40 22 ESE 1013,9 15 0,0
31.05.2020 16:00:00 20,5 17,5 30 16 41 22 ESE 1014,1 - 0,0
31.05.2020 15:00:00 20,7 17,3 31 17 46 25 SE 1014,3 - 0,0
31.05.2020 14:00:00 20,5 17,5 35 19 46 25 SE 1014,4 15 0,0
31.05.2020 13:00:00 20,5 17,7 35 19 46 25 SE 1014,4 - 0,0
31.05.2020 12:00:00 20,2 17,4 27 15 34 18 SE 1014,4 - 0,0
31.05.2020 11:00:00 20,4 17,2 25 13 35 19 SSE 1014,2 15 0,0
31.05.2020 10:00:00 19,6 16,2 21 11 35 19 SE 1014,2 - 0,0
31.05.2020 09:00:00 19,7 16,2 25 14 32 17 SE 1013,9 - 0,0
31.05.2020 08:00:00 19,1 16,0 27 14 34 18 SSE 1013,6 12 0,0
31.05.2020 07:00:00 18,1 15,7 21 11 25 14 SSE 1013,5 - 0,2
31.05.2020 06:00:00 16,3 15,5 4 2 19 10 W 1013,2 - 0,0
31.05.2020 05:00:00 16,9 16,1 10 5 21 12 NW 1013,1 15 0,0
31.05.2020 04:00:00 16,9 16,1 10 5 18 10 NW 1013,5 - 0,0
31.05.2020 03:00:00 17,0 16,0 11 6 15 8 NNW 1014,1 - 0,0
31.05.2020 02:00:00 17,6 16,5 9 5 11 6 NNW 1014,2 - 0,0
31.05.2020 01:00:00 17,1 15,3 8 4 16 9 WNW 1014,5 - 0,0
31.05.2020 00:00:00 19,6 17,0 11 6 22 12 S 1014,5 - 0,0
30.05.2020 23:00:00 19,9 17,3 21 11 26 14 S 1014,3 - 0,0
30.05.2020 22:00:00 20,0 17,2 21 12 35 19 S 1014,0 - 0,0
30.05.2020 21:00:00 19,8 16,1 29 16 41 22 SSE 1013,9 - 0,0
30.05.2020 20:00:00 20,0 16,0 34 18 42 23 SSE 1014,0 20 0,0
30.05.2020 19:00:00 20,0 14,8 37 20 45 24 SSE 1014,0 - 0,0
30.05.2020 18:00:00 20,2 13,4 28 15 37 20 SSE 1015,0 - 0,0
30.05.2020 17:00:00 20,2 14,6 28 15 37 20 SSE 1015,2 20 0,0
30.05.2020 16:00:00 20,3 15,3 26 14 34 18 SE 1015,6 - 0,0
30.05.2020 15:00:00 20,1 14,9 27 15 36 19 SE 1016,0 - 0,0
30.05.2020 14:00:00 20,5 15,3 26 14 35 19 SE 1016,2 - 0,0
30.05.2020 13:00:00 20,2 16,2 27 15 40 21 SE 1016,5 - 0,0
30.05.2020 12:00:00 20,2 16,6 29 16 36 19 ESE 1016,4 - 0,0
30.05.2020 11:00:00 19,6 16,4 27 14 33 18 ESE 1016,6 12 0,0
30.05.2020 10:00:00 20,1 16,7 24 13 34 18 ESE 1016,7 - 0,0
30.05.2020 09:00:00 20,1 15,9 19 10 29 15 ESE 1016,6 - 0,0
30.05.2020 08:00:00 19,5 16,2 20 11 29 16 SE 1016,7 15 0,0
30.05.2020 07:00:00 18,8 16,0 21 11 36 19 SE 1016,7 - 0,0
30.05.2020 06:00:00 18,8 16,4 27 14 36 19 ESE 1016,5 - 0,0
30.05.2020 05:00:00 18,8 16,4 24 13 36 20 ESE 1016,6 - 0,0
30.05.2020 04:00:00 19,1 16,3 18 10 24 13 ESE 1017,0 - 0,0
30.05.2020 03:00:00 19,1 16,3 17 9 25 13 ESE 1017,3 - 0,0
30.05.2020 02:00:00 19,1 16,3 15 8 23 12 SE 1017,5 - 0,0
30.05.2020 01:00:00 19,2 16,2 16 9 25 14 ESE 1017,7 - 0,0
30.05.2020 00:00:00 19,3 16,1 17 9 28 15 ESE 1017,6 - 0,0
29.05.2020 23:00:00 19,4 16,6 19 10 29 16 E 1017,6 - 0,0
29.05.2020 22:00:00 19,5 16,0 13 7 24 13 E 1017,2 - 0,0
29.05.2020 21:00:00 19,4 15,9 17 9 26 14 E 1016,6 - 0,0
29.05.2020 20:00:00 20,5 16,3 16 9 30 16 E 1016,5 15 0,0
29.05.2020 19:00:00 21,2 15,5 19 11 25 13 SE 1016,1 - 0,0
29.05.2020 18:00:00 21,4 14,1 18 10 23 13 SE 1015,5 - 0,0
29.05.2020 17:00:00 21,4 13,8 16 9 24 13 SE 1015,7 - 0,0
29.05.2020 16:00:00 22,2 15,1 16 9 22 12 SSE 1015,9 - 0,0
29.05.2020 15:00:00 22,6 15,4 16 9 22 12 SSE 1015,8 - 0,0
29.05.2020 14:00:00 22,0 15,4 16 8 18 10 SE 1016,3 15 0,0
29.05.2020 13:00:00 22,1 16,6 11 6 14 7 SE 1016,5 - 0,0
29.05.2020 12:00:00 21,9 16,6 7 4 10 5 SE 1016,7 - 0,0
29.05.2020 11:00:00 21,9 15,5 6 3 10 5 ESE 1016,8 20 0,0
29.05.2020 10:00:00 22,0 15,8 4 2 9 5 ENE 1016,8 - 0,0
29.05.2020 09:00:00 21,1 14,5 6 3 12 7 NNW 1017,1 - 0,0
29.05.2020 08:00:00 19,4 16,4 7 4 18 10 NNW 1017,1 15 0,0
29.05.2020 07:00:00 17,6 16,1 13 7 20 11 NW 1017,0 - 0,0
29.05.2020 06:00:00 17,5 16,4 11 6 22 12 NNW 1017,2 - 0,0
29.05.2020 05:00:00 17,8 16,7 13 7 23 12 NNW 1017,2 15 0,2
29.05.2020 04:00:00 17,9 16,9 16 9 25 13 NNW 1017,6 - 0,0
29.05.2020 03:00:00 18,5 17,3 14 7 23 12 NNW 1018,1 - 0,0
29.05.2020 02:00:00 19,1 17,9 11 6 17 9 NNW 1018,5 - 0,0
29.05.2020 01:00:00 18,6 16,0 9 5 12 7 NNW 1018,9 - 0,0
29.05.2020 00:00:00 19,6 16,2 7 4 13 7 WSW 1019,0 - 0,0
28.05.2020 23:00:00 19,6 16,6 11 6 16 8 SSW 1019,3 - 0,0
28.05.2020 22:00:00 20,3 18,4 12 6 17 9 S 1019,2 - 0,0
28.05.2020 21:00:00 20,2 17,6 14 8 19 11 S 1019,2 - 0,0
28.05.2020 20:00:00 20,3 16,5 16 9 27 15 S 1019,7 25 0,0
28.05.2020 19:00:00 20,3 16,5 22 12 28 15 S 1020,3 - 0,0
28.05.2020 18:00:00 20,7 16,9 23 12 29 15 S 1021,2 - 0,0
28.05.2020 17:00:00 20,1 16,5 18 10 23 13 SSE 1021,9 25 0,0
28.05.2020 16:00:00 20,1 16,3 13 7 19 11 SSE 1022,7 - 0,0
28.05.2020 15:00:00 20,6 16,6 11 6 19 10 SE 1023,4 - 0,0
28.05.2020 14:00:00 20,6 16,6 12 6 19 11 ESE 1024,1 15 0,0
28.05.2020 13:00:00 20,3 16,1 11 6 19 10 ESE 1024,6 - 0,0
28.05.2020 12:00:00 20,4 16,2 8 5 17 9 E 1024,9 - 0,0
28.05.2020 11:00:00 21,0 17,2 8 4 20 11 NE 1025,3 11 0,0
28.05.2020 10:00:00 20,4 16,0 9 5 17 9 ENE 1025,7 - 0,0
28.05.2020 09:00:00 20,3 16,3 6 3 16 9 ENE 1025,8 - 0,0
28.05.2020 08:00:00 19,1 16,3 11 6 16 9 E 1025,9 10 0,0
28.05.2020 07:00:00 18,1 16,6 9 5 16 9 E 1026,1 - 0,0
28.05.2020 06:00:00 18,0 16,7 10 5 16 8 E 1026,1 - 0,0
28.05.2020 05:00:00 18,1 16,9 9 5 15 8 E 1026,3 15 0,2
28.05.2020 04:00:00 18,3 17,3 6 4 11 6 E 1026,5 - 0,0
28.05.2020 03:00:00 17,9 16,9 2 1 8 4 NNE 1026,8 - 0,0
28.05.2020 02:00:00 18,3 17,0 5 3 11 6 SE 1027,2 - 0,0

tt = Température de l'air
td = dewpoint
ff = Vitesse du vent
fx = gusts
dd = Direction du vent
ppp = reduced air pressure
vv = visibility
rr = Quantités de précipitations

stations d'obs. à proximité